Weather History for Waupaca, WI

Change the Weather History Date:

Wednesday, May 14, 2014

  Actual Average Record
Temperature  
Mean Temperature 52 °F -  
Max Temperature 61 °F 67 °F 90 °F (1977)
Min Temperature 42 °F 44 °F 31 °F (1964)
Degree Days  
Heating Degree Days 14    
Growing Degree Days 2 (Base 50)    
Moisture  
Dew Point 33 °F    
Average Humidity 51    
Maximum Humidity 81    
Minimum Humidity 28    
Precipitation  
Precipitation 0.00 in - - ()
Sea Level Pressure  
Sea Level Pressure 30.14 in    
Wind  
Wind Speed 6 mph (NW)    
Max Wind Speed 10 mph    
Max Gust Speed 21 mph    
Visibility 10 miles    
Events      
Averages and records for this station are not official NWS values.
T = Trace of Precipitation, MM = Missing Value Source: NWS Daily Summary

Daily Weather History Graph

Daily Weather History Graph

Search for Another Location

Airport:

Trip Planner

Search our weather history database for the weather conditions in past years. The results will help you decide how hot, cold, wet, or windy it might be!

Date:

Astronomy

May. 14, 2014 Rise Set
Actual Time 5:30 AM CDT 8:15 PM CDT
Civil Twilight 4:56 AM CDT 8:49 PM CDT
Nautical Twilight 4:14 AM CDT 9:31 PM CDT
Astronomical Twilight 3:25 AM CDT 10:21 PM CDT
Moon 8:19 PM CDT (5/14) 5:30 AM CDT (5/14)
Length of Visible Light 15h 52m
Length of Day
14h 45m
Full, 100% of the Moon is Illuminated
May 14
Full
May 14
Full
May 21
Last Quarter
May 28
New
Jun 5
First Quarter

Hourly Weather History & Observations

Time (CDT) Temp. Windchill Dew Point Humidity Pressure Visibility Wind Dir Wind Speed Gust Speed Precip Events Conditions
12:18 AM 46.4 °F 44.3 °F 39.2 °F 76% 30.13 in 10.0 mi WSW 4.6 mph - N/A   Clear
12:38 AM 46.4 °F 42.9 °F 39.2 °F 76% 30.13 in 10.0 mi West 6.9 mph - N/A   Clear
12:58 AM 46.4 °F 42.9 °F 39.2 °F 76% 30.13 in 10.0 mi West 6.9 mph - N/A   Clear
1:38 AM 46.4 °F 42.9 °F 39.2 °F 76% 30.14 in 10.0 mi West 6.9 mph - N/A   Clear
1:58 AM 46.4 °F 42.9 °F 39.2 °F 76% 30.14 in 10.0 mi WNW 6.9 mph - N/A   Clear
2:18 AM 46.4 °F 42.9 °F 37.4 °F 71% 30.14 in 10.0 mi West 6.9 mph - N/A   Clear
2:38 AM 46.4 °F 43.5 °F 37.4 °F 71% 30.14 in 10.0 mi WNW 5.8 mph - N/A   Clear
2:58 AM 46.4 °F 43.5 °F 37.4 °F 71% 30.14 in 10.0 mi WNW 5.8 mph - N/A   Clear
3:18 AM 46.4 °F 43.5 °F 37.4 °F 71% 30.14 in 10.0 mi WNW 5.8 mph - N/A   Clear
3:40 AM 46.4 °F 42.9 °F 37.4 °F 71% 30.14 in 10.0 mi WNW 6.9 mph - N/A   Clear
3:58 AM 44.6 °F 41.4 °F 37.4 °F 76% 30.15 in 10.0 mi WNW 5.8 mph - N/A   Clear
4:18 AM 44.6 °F 41.4 °F 37.4 °F 76% 30.16 in 10.0 mi West 5.8 mph - N/A   Clear
4:38 AM 44.6 °F 42.2 °F 37.4 °F 76% 30.16 in 10.0 mi WNW 4.6 mph - N/A   Clear
4:58 AM 44.6 °F 43.1 °F 37.4 °F 76% 30.16 in 10.0 mi WNW 3.5 mph - N/A   Clear
5:18 AM 44.6 °F 43.1 °F 37.4 °F 76% 30.17 in 10.0 mi WNW 3.5 mph - N/A   Clear
5:38 AM 42.8 °F 41.1 °F 37.4 °F 81% 30.17 in 10.0 mi West 3.5 mph - N/A   Clear
5:58 AM 42.8 °F 41.1 °F 37.4 °F 81% 30.18 in 10.0 mi WNW 3.5 mph - N/A   Clear
6:18 AM 42.8 °F - 37.4 °F 81% 30.19 in 10.0 mi Calm Calm - N/A   Clear
6:38 AM 44.6 °F 42.2 °F 37.4 °F 76% 30.20 in 10.0 mi West 4.6 mph - N/A   Clear
6:58 AM 46.4 °F 44.3 °F 37.4 °F 71% 30.20 in 10.0 mi WNW 4.6 mph - N/A   Clear
7:18 AM 48.2 °F - 37.4 °F 66% 30.20 in 10.0 mi NW 5.8 mph - N/A   Clear
7:38 AM 48.2 °F - 37.4 °F 66% 30.20 in 10.0 mi NW 8.1 mph - N/A   Clear
7:58 AM 48.2 °F - 37.4 °F 66% 30.21 in 10.0 mi NW 6.9 mph - N/A   Clear
8:18 AM 50.0 °F - 37.4 °F 62% 30.21 in 10.0 mi NW 8.1 mph - N/A   Clear
8:38 AM 51.8 °F - 37.4 °F 58% 30.21 in 10.0 mi NW 9.2 mph - N/A   Clear
8:58 AM 51.8 °F - 37.4 °F 58% 30.21 in 10.0 mi West 5.8 mph - N/A   Clear
9:19 AM 53.6 °F - 35.6 °F 51% 30.21 in 10.0 mi NW 8.1 mph - N/A   Clear
9:38 AM 53.6 °F - 37.4 °F 54% 30.21 in 10.0 mi WNW 6.9 mph - N/A   Clear
10:18 AM 55.4 °F - 35.6 °F 47% 30.20 in 10.0 mi WNW 6.9 mph - N/A   Scattered Clouds
10:38 AM 55.4 °F - 33.8 °F 44% 30.20 in 10.0 mi North 4.6 mph - N/A   Clear
11:58 AM 57.2 °F - 32.0 °F 38% 30.19 in 10.0 mi West 9.2 mph - N/A   Mostly Cloudy
12:38 PM 57.2 °F - 28.4 °F 33% 30.18 in 10.0 mi WNW 4.6 mph - N/A   Scattered Clouds
12:40 PM 58.1 °F - 28.4 °F 32% 30.18 in 10.0 mi NW 3.5 mph - N/A   Clear
12:55 PM 58.8 °F - 30.2 °F 34% 30.17 in 10.0 mi NNW 10.4 mph - N/A   Clear
1:15 PM 59.9 °F - 30.4 °F 33% 30.18 in 10.0 mi NNW 8.1 mph - N/A   Scattered Clouds
1:40 PM 59.9 °F - 28.2 °F 30% 30.16 in 10.0 mi Calm Calm - N/A   Scattered Clouds
1:55 PM 60.6 °F - 29.1 °F 30% 30.15 in 10.0 mi NW 3.5 mph - N/A   Scattered Clouds
2:15 PM 60.3 °F - 28.4 °F 30% 30.15 in 10.0 mi West 6.9 mph - N/A   Clear
2:35 PM 61.7 °F - 28.0 °F 28% 30.15 in 10.0 mi WNW 6.9 mph - N/A   Clear
2:55 PM 61.0 °F - 27.9 °F 28% 30.14 in 10.0 mi WNW 9.2 mph - N/A   Clear
3:15 PM 60.3 °F - 26.6 °F 28% 30.14 in 10.0 mi WNW 8.1 mph - N/A   Clear
3:35 PM 60.4 °F - 29.1 °F 31% 30.13 in 10.0 mi WNW 5.8 mph - N/A   Clear
3:55 PM 59.9 °F - 27.7 °F 29% 30.12 in 10.0 mi NNW 4.6 mph - N/A   Clear
4:15 PM 61.0 °F - 28.0 °F 29% 30.11 in 10.0 mi WNW 10.4 mph - N/A   Clear
4:35 PM 60.3 °F - 28.6 °F 30% 30.11 in 10.0 mi NW 10.4 mph - N/A   Clear
4:55 PM 60.8 °F - 28.0 °F 29% 30.11 in 10.0 mi NW 9.2 mph - N/A   Clear
5:15 PM 59.5 °F - 28.9 °F 31% 30.11 in 10.0 mi WNW 5.8 mph - N/A   Clear
5:35 PM 59.2 °F - 27.3 °F 30% 30.12 in 10.0 mi NW 8.1 mph - N/A   Clear
5:55 PM 59.0 °F - 27.9 °F 31% 30.11 in 10.0 mi NNW 4.6 mph - N/A   Clear
6:15 PM 59.0 °F - 26.8 °F 29% 30.10 in 10.0 mi Calm Calm - N/A   Scattered Clouds
6:35 PM 58.5 °F - 28.9 °F 33% 30.09 in 10.0 mi North 3.5 mph - N/A   Mostly Cloudy
6:55 PM 58.6 °F - 28.0 °F 31% 30.09 in 10.0 mi North 5.8 mph - N/A   Scattered Clouds
7:15 PM 57.7 °F - 29.1 °F 34% 30.09 in 10.0 mi North 3.5 mph - N/A   Clear
7:35 PM 57.4 °F - 30.0 °F 35% 30.08 in 10.0 mi North 3.5 mph - N/A   Clear
7:55 PM 57.2 °F - 30.2 °F 36% 30.09 in 10.0 mi Calm Calm - N/A   Clear
8:15 PM 56.7 °F - 31.8 °F 39% 30.09 in 10.0 mi Calm Calm - N/A   Scattered Clouds
8:35 PM 55.9 °F - 31.6 °F 40% 30.09 in 10.0 mi NW 3.5 mph - N/A   Mostly Cloudy
8:55 PM 55.4 °F - 32.0 °F 41% 30.09 in 10.0 mi NNW 3.5 mph - N/A   Overcast
9:15 PM 55.4 °F - 32.7 °F 42% 30.08 in 10.0 mi Calm Calm - N/A   Overcast
9:35 PM 55.4 °F - 32.5 °F 42% 30.08 in 10.0 mi NW 3.5 mph - N/A   Overcast
9:55 PM 53.8 °F - 31.3 °F 42% 30.07 in 10.0 mi NNW 5.8 mph - N/A   Overcast
10:15 PM 54.1 °F - 30.0 °F 40% 30.08 in 10.0 mi North 5.8 mph - N/A   Mostly Cloudy
10:35 PM 54.5 °F - 29.3 °F 38% 30.08 in 10.0 mi North 6.9 mph - N/A   Mostly Cloudy
10:55 PM 54.3 °F - 29.3 °F 38% 30.08 in 10.0 mi North 6.9 mph - N/A   Overcast
11:15 PM 53.8 °F - 34.3 °F 48% 30.08 in 10.0 mi East 9.2 mph - N/A   Overcast
11:35 PM 52.5 °F - 41.0 °F 65% 30.08 in 10.0 mi East 3.5 mph - N/A   Overcast
11:55 PM 52.5 °F - 38.8 °F 60% 30.09 in 10.0 mi ENE 10.4 mph 20.7 mph N/A   Overcast